Lapse_Rate
2.5 4.4 5.7 6.4 6.5 6.5 6.4 5.9 4.7 5.6 5.8 5.5 5.6 4.6 4.4 6.9 7.7 7.9 7.5 7.6 8.4 8.7 8.9 9.3 9.1 9.0 8.8 9.4 8.9 8.9 8.7 8.7 8.0 8.4 8.2 8.9 8.9 8.6 8.4 8.5 8.5 8.4 7.9 8.4
2.1 2.5 3.5 4.3 6.1 6.1 6.1 5.4 4.5 5.1 6.0 5.6 5.4 4.8 5.5 7.1 7.5 7.6 7.3 7.7 8.3 8.6 9.0 8.4 8.7 9.2 9.0 9.0 9.1 8.6 8.7 8.4 8.1 8.2 8.5 8.7 8.8 8.7 8.7 8.6 8.3 8.4 7.1 8.4
2.9 2.7 2.7 2.9 3.9 5.5 5.4 4.6 5.1 5.1 5.8 5.5 5.2 5.3 5.9 6.7 7.5 7.6 7.3 7.6 8.4 8.5 8.5 9.1 8.9 9.1 8.4 8.5 8.6 8.5 8.4 8.4 8.4 8.3 8.7 8.6 8.6 8.6 8.7 8.7 8.4 8.3 8.4 8.4
3.5 2.8 3.3 2.8 3.4 4.0 4.7 4.8 4.6 5.1 5.3 5.2 4.3 4.8 6.2 6.7 7.1 7.2 7.3 7.4 8.1 8.4 8.3 9.1 8.8 8.6 8.3 8.0 8.0 8.2 8.2 8.2 8.1 8.4 8.4 8.1 8.3 8.5 8.4 8.5 8.6 8.3 8.6 8.4
4.2 3.7 3.5 3.1 3.6 4.1 5.2 4.9 4.5 4.7 5.2 4.9 4.7 4.7 5.9 6.6 7.4 7.4 7.6 7.4 8.1 8.3 8.4 8.6 8.5 8.4 8.3 8.1 8.1 8.0 7.9 7.9 8.0 7.8 8.1 8.1 7.9 8.1 8.3 8.4 8.7 8.7 8.4 8.5
4.6 4.4 4.4 3.5 3.9 4.4 4.8 4.7 4.5 4.6 5.4 5.4 5.2 4.7 6.6 6.5 7.2 7.5 7.6 8.0 8.1 8.4 8.3 8.5 8.6 8.4 8.2 7.8 7.9 7.7 7.6 7.6 7.5 7.5 7.8 7.8 7.7 8.2 8.3 8.3 8.6 8.5 8.4 8.2
5.1 4.7 4.9 4.1 4.2 4.6 4.5 4.6 5.0 4.9 5.3 5.3 5.5 5.5 6.8 6.6 7.2 7.3 7.8 8.1 8.3 8.2 8.1 8.4 8.3 8.1 7.8 7.6 7.4 7.7 7.5 7.4 7.2 7.3 7.4 5.6 7.9 7.8 8.1 8.1 8.0 8.0 7.9 7.7
5.2 4.9 4.9 5.1 4.7 5.3 4.7 5.3 4.9 5.3 5.5 5.4 5.7 5.9 6.7 7.2 7.5 7.5 7.7 8.2 8.4 8.3 8.1 8.2 8.0 7.7 7.3 6.8 6.9 7.4 7.3 7.5 7.3 7.1 7.1 7.5 7.7 7.6 8.1 8.1 7.5 7.6 7.8 7.8
5.7 5.7 5.6 5.3 5.4 5.3 4.9 5.7 5.0 6.3 6.1 5.3 6.0 6.7 6.8 7.5 7.6 7.6 7.4 7.8 8.2 8.3 8.1 7.9 7.8 7.5 7.6 7.2 7.3 7.5 7.2 7.3 7.3 6.9 6.9 5.0 7.5 7.6 7.7 7.7 7.2 7.1 7.2 7.3
6.2 6.3 6.0 5.4 5.7 5.2 4.9 5.7 5.2 5.7 6.1 6.2 6.5 6.8 6.8 7.4 7.4 7.2 7.3 7.0 7.5 7.9 7.6 7.8 7.6 7.4 7.6 7.2 7.2 7.3 7.0 6.7 6.9 7.0 7.1 7.2 6.9 7.4 7.5 7.4 6.5 6.5 6.7 6.7
7.5 7.0 6.5 5.4 5.7 5.0 5.8 6.0 5.8 5.7 5.8 6.8 6.9 6.9 7.8 7.8 7.0 6.9 7.4 7.3 6.9 7.8 7.8 7.8 7.3 7.3 7.6 7.3 7.4 7.4 7.1 6.8 6.6 6.4 6.5 6.6 6.8 6.7 6.8 6.8 6.4 6.4 6.5 6.3
7.7 7.6 6.5 5.4 5.5 6.3 6.6 7.2 6.4 6.7 5.9 6.8 6.9 6.9 7.3 7.1 7.2 7.2 6.9 6.7 7.3 8.1 7.9 7.5 7.5 7.3 7.5 7.5 7.2 7.2 7.2 7.1 7.2 7.1 7.0 6.8 6.5 6.4 6.3 6.6 6.7 6.4 6.3 6.3
7.6 7.6 6.4 5.5 5.9 7.5 6.9 7.0 6.7 5.9 6.4 6.8 6.9 6.8 7.2 7.4 7.4 7.3 7.4 6.9 7.5 8.0 8.0 7.9 7.6 7.2 7.4 7.2 7.2 7.1 7.0 6.9 6.9 6.8 6.7 6.5 6.1 6.1 6.0 6.5 6.6 6.4 6.2 6.0
7.6 6.6 5.3 5.5 7.7 7.3 6.9 6.7 6.1 6.0 5.6 6.3 6.6 6.9 6.9 6.9 6.8 7.3 7.4 7.3 7.2 8.2 8.2 8.0 7.6 7.4 7.3 7.3 7.3 7.0 6.9 6.9 6.8 6.9 6.4 6.2 6.0 5.8 5.9 6.1 6.1 6.0 5.8 5.8
6.6 6.0 5.6 6.1 8.0 6.9 7.0 7.1 6.8 6.7 6.3 6.3 6.1 6.8 6.9 6.7 6.8 7.5 7.5 6.9 8.1 8.0 7.8 7.6 7.3 7.3 7.3 7.3 7.1 7.0 6.8 6.8 6.9 6.8 6.8 6.7 6.6 6.6 6.6 6.3 5.8 5.7 5.8 5.8
6.3 5.8 6.2 7.4 5.5 6.6 7.0 6.1 6.3 6.1 6.5 6.2 6.2 6.4 7.0 7.1 7.1 7.5 7.7 7.4 7.6 7.6 7.6 7.3 7.2 7.3 7.3 7.2 7.0 6.9 6.8 6.9 6.8 6.7 6.7 6.6 6.5 6.5 6.3 6.0 5.9 6.0 6.0 6.0
6.0 6.3 7.2 7.2 6.8 6.6 6.3 6.1 6.3 6.3 6.5 6.2 6.3 7.0 6.7 7.4 7.7 7.8 7.7 7.3 7.3 7.2 7.3 7.3 7.2 7.2 7.2 7.1 6.9 6.9 6.8 6.9 6.8 6.6 6.5 6.4 6.5 6.5 6.2 6.1 6.0 6.0 6.1 6.1
6.3 6.2 6.5 6.6 6.7 6.3 5.8 6.3 6.5 6.1 6.5 7.2 7.3 7.0 7.4 7.7 7.5 7.4 7.3 7.2 7.1 7.4 7.4 7.4 7.4 7.4 7.2 6.9 6.8 6.9 6.9 6.9 6.9 6.7 6.5 6.4 6.4 6.2 6.2 6.2 6.2 6.1 6.1 5.9
6.2 6.7 6.5 6.1 6.3 6.0 6.6 6.7 6.6 7.0 7.2 7.1 6.9 6.9 6.7 6.9 6.8 6.8 7.0 7.1 7.0 7.2 7.2 7.3 7.3 7.2 6.9 6.8 6.9 6.9 6.9 6.9 6.9 6.7 6.5 6.3 6.0 5.9 5.9 5.9 6.0 6.0 5.9 5.6
6.3 6.2 6.1 6.0 6.8 6.6 6.5 6.7 6.6 6.8 6.9 7.2 6.9 6.8 6.4 6.5 6.8 6.8 6.9 7.0 6.9 7.1 7.1 7.1 7.0 7.0 7.0 6.9 6.9 7.0 6.9 6.8 6.7 6.6 6.5 6.3 6.2 6.1 6.1 6.1 5.8 5.4 5.4 5.4
6.4 6.3 6.2 5.9 6.0 6.8 6.7 6.7 6.5 6.2 6.3 6.4 6.7 6.4 6.8 7.1 7.2 7.2 7.2 7.0 6.9 6.8 6.9 6.8 6.6 6.7 6.9 7.0 7.0 7.0 7.0 6.9 6.5 6.3 6.2 6.2 6.2 6.1 6.0 5.7 5.4 5.5 5.3 5.1
6.4 6.3 6.1 6.2 6.6 6.4 6.4 6.5 6.3 6.2 6.4 6.7 6.8 6.5 6.6 7.0 7.0 6.8 6.8 6.9 7.0 7.0 6.8 6.7 6.5 6.7 7.2 7.5 7.5 7.3 7.2 6.8 6.7 6.5 6.1 6.0 6.0 5.9 5.4 5.4 5.5 5.3 5.1 5.0
6.4 6.4 6.5 6.5 6.4 6.2 6.2 6.3 6.6 6.8 7.2 7.2 6.8 6.7 6.5 6.7 6.7 6.9 7.1 7.0 6.9 6.5 6.6 6.4 6.9 7.4 7.5 7.7 7.8 7.5 7.0 6.6 6.3 6.3 5.9 5.5 5.2 5.2 5.3 5.1 5.1 5.0 5.0 4.9
6.6 6.6 6.6 6.3 6.3 6.5 6.4 6.8 7.1 7.1 7.1 7.0 6.8 6.6 7.0 7.1 7.1 7.3 7.3 7.1 6.7 6.3 6.2 7.0 7.4 7.3 7.4 7.4 7.1 7.0 6.6 6.2 5.8 5.3 5.2 5.1 5.1 5.2 5.0 5.1 5.0 4.9 4.8 4.8
6.9 6.9 7.0 6.7 6.8 6.6 6.7 6.6 6.7 6.8 7.1 6.4 6.4 6.6 7.2 7.4 7.2 7.1 7.0 6.9 6.3 5.6 6.4 7.1 7.0 7.0 6.9 6.7 6.5 5.7 5.1 5.3 5.1 5.1 5.2 5.2 5.1 4.9 4.8 4.8 4.8 4.8 4.9 5.0
6.6 6.7 6.4 6.6 6.7 6.8 6.6 6.3 6.2 6.3 6.8 6.6 6.4 6.6 6.8 6.9 7.0 6.9 6.9 6.6 5.9 6.4 6.8 6.7 6.6 6.5 6.3 6.2 5.3 5.3 5.4 5.4 5.4 5.3 5.1 5.0 4.8 4.7 4.7 4.8 4.8 5.0 5.2 5.1
6.2 6.0 6.1 6.1 6.2 6.2 6.1 6.2 6.4 6.3 6.4 6.3 6.4 6.4 6.5 6.4 6.1 6.2 5.7 5.7 6.2 6.2 6.2 6.2 6.2 6.1 6.1 5.7 5.6 5.5 5.6 5.4 5.2 5.0 4.9 4.8 4.7 4.8 5.1 5.2 5.1 5.2 5.1 5.0
Wind_Speed
33 28 26 33 30 27 18 4 6 10 13 6 5 15 17 13 20 17 10 4 1 7 7 7 9 8 2 5 10 9 8 5 4 18 17 9 5 5 2 4 4 2 5 5
34 26 20 31 33 34 8 5 4 8 14 12 12 7 18 22 20 20 7 3 3 3 7 7 10 5 5 7 5 6 3 2 3 3 3 4 3 4 4 3 3 4 5 5
32 28 24 26 33 37 9 4 6 6 10 8 18 17 17 22 14 21 18 8 7 5 5 3 7 3 2 4 4 2 4 1 6 6 6 2 5 5 5 5 4 3 5 5
31 31 30 26 31 36 9 5 8 8 12 18 13 18 13 19 17 16 9 8 9 7 5 3 5 4 3 3 0 2 4 4 1 5 5 3 4 5 6 4 6 7 8 7
32 33 31 30 31 34 12 3 6 6 4 16 15 20 21 24 19 17 16 13 10 8 6 7 7 8 5 6 2 5 1 2 3 2 6 7 3 5 8 6 5 1 4 6
31 32 30 32 29 31 5 6 5 5 8 18 17 21 23 22 15 12 15 9 7 8 6 6 5 6 7 8 8 6 6 4 3 2 4 6 6 6 6 6 4 3 4 4
30 32 32 33 30 35 2 8 3 4 9 14 20 21 22 21 24 14 13 9 7 3 11 9 8 12 10 11 8 3 6 5 3 3 3 1 9 1 5 6 6 8 9 7
31 30 32 33 33 37 10 3 4 2 3 16 15 22 24 20 15 19 6 2 8 11 6 4 4 5 6 0 3 4 4 5 2 4 4 5 6 2 2 4 4 6 8 8
27 28 31 32 34 28 7 11 4 3 4 11 21 25 19 13 10 2 1 7 4 5 4 3 5 4 6 4 2 8 7 5 5 2 4 6 6 3 4 3 2 4 8 8
29 30 29 32 29 25 7 4 9 3 4 5 8 18 23 13 5 5 2 4 5 3 3 3 3 2 7 5 8 4 3 3 5 2 2 7 5 5 0 6 5 4 7 6
19 23 26 25 24 27 12 8 9 4 4 6 4 11 12 6 7 7 6 4 5 1 3 4 3 3 5 4 8 7 6 6 3 4 3 5 6 3 6 6 3 7 6 5
25 23 23 25 26 23 16 6 8 6 2 5 12 5 4 5 12 9 2 9 6 6 4 3 4 2 2 3 2 3 2 6 6 7 6 6 4 9 6 9 7 5 7 8
23 21 22 23 25 24 20 8 4 3 3 7 5 2 5 9 11 12 6 2 9 2 4 4 3 4 4 3 4 3 2 4 3 5 3 5 12 10 9 11 13 14 12 8
21 20 21 21 23 26 18 6 4 2 3 2 1 3 2 3 6 10 10 7 1 6 4 3 3 4 3 4 4 4 5 4 5 3 10 14 10 7 11 12 16 16 16 14
21 18 18 20 16 16 7 4 4 4 2 2 3 2 4 2 5 10 10 8 6 3 3 3 2 3 4 1 3 1 1 4 4 4 4 10 6 10 13 16 14 12 15 14
18 18 17 15 20 18 4 3 8 9 4 2 2 2 8 2 5 8 9 4 3 3 3 2 2 2 4 3 3 1 6 9 4 4 12 16 14 14 13 15 13 13 13 11
19 18 16 20 24 7 7 5 3 2 7 5 0 3 3 3 6 4 5 5 3 3 2 2 3 2 3 3 4 6 10 9 9 10 17 9 3 8 11 13 13 15 13 11
19 20 20 18 13 10 2 13 12 7 2 4 3 2 4 6 3 3 4 3 3 5 2 3 3 3 3 3 5 8 12 13 12 11 12 14 15 14 11 11 11 12 10 7
22 21 21 7 1 4 4 4 7 1 4 4 3 4 3 3 3 3 4 3 3 2 2 2 4 0 2 3 10 8 8 7 10 13 15 14 14 13 11 11 8 9 6 7
27 12 5 3 4 5 5 4 4 5 4 4 3 2 2 3 2 2 2 1 3 3 2 2 3 2 4 6 7 7 9 12 13 15 8 11 11 12 12 9 8 10 10 10
2 3 3 2 6 3 4 3 4 2 4 3 2 2 3 3 3 3 0 2 0 3 3 4 1 2 4 5 6 4 9 10 6 8 11 11 12 13 13 12 11 10 9 8
6 6 4 2 4 4 6 4 3 5 2 3 3 3 2 1 2 3 1 3 1 2 3 3 3 1 7 7 6 5 11 11 11 12 14 13 12 13 13 11 10 9 8 8
3 4 5 3 4 7 3 2 2 3 2 2 1 2 0 3 3 2 2 3 1 2 2 3 1 5 5 6 8 9 10 13 15 15 15 14 13 12 12 10 9 11 9 7
5 4 6 4 3 3 2 2 2 1 1 2 4 1 1 0 3 1 4 1 2 2 2 4 3 7 5 8 8 12 12 12 14 13 12 12 12 11 10 9 8 9 9 7
5 5 4 4 1 1 0 1 2 3 2 3 2 2 2 2 3 2 3 2 3 4 3 2 4 6 10 10 10 10 12 11 11 10 10 11 11 11 10 8 8 8 6 6
4 6 3 2 1 3 4 3 2 3 3 1 1 2 3 3 3 2 1 5 3 1 2 3 7 9 9 10 10 10 9 11 9 9 9 8 10 10 9 8 7 5 6 5
4 4 3 3 4 4 2 3 2 2 1 2 2 3 2 1 2 3 3 2 2 3 4 4 8 9 12 10 10 7 11 12 10 9 8 9 9 10 7 7 5 6 5 5
Wind_Direction
225 217 212 202 182 178 167 195 193 158 152 170 204 220 211 248 257 263 275 259 266 199 223 186 190 226 61 157 148 140 201 134 144 224 244 208 176 193 193 123 262 185 142 272
215 196 215 199 185 180 169 193 163 173 162 197 210 205 222 243 256 258 273 198 211 276 224 121 235 113 342 18 85 150 153 192 140 333 294 299 225 213 221 147 85 179 127 260
203 196 213 207 194 184 186 192 174 163 209 213 191 194 209 224 250 262 259 228 256 271 269 185 201 126 42 35 90 144 109 129 148 188 213 154 330 261 255 151 112 200 208 272
207 196 205 213 202 192 202 198 200 179 192 209 193 188 207 216 227 219 242 242 213 202 222 250 173 99 98 76 138 100 109 164 300 295 309 252 230 299 315 246 203 150 233 226
203 199 194 215 204 196 203 189 199 158 182 180 206 186 212 206 220 236 235 231 209 215 188 196 203 133 156 177 190 153 178 199 120 309 335 14 1 302 306 301 302 228 228 242
201 197 196 204 206 195 181 222 288 194 178 177 192 204 201 210 211 244 236 208 203 199 186 111 120 129 124 155 148 184 141 129 88 245 351 7 345 245 238 247 280 259 287 330
198 198 200 198 209 201 227 205 292 198 197 188 200 194 203 202 224 229 226 196 173 171 115 56 31 49 48 76 349 150 144 116 98 181 39 42 243 243 130 108 64 72 72 60
198 199 200 195 203 202 212 244 220 280 227 190 195 201 196 214 225 227 225 197 159 132 70 87 68 2 30 267 101 65 100 116 96 135 186 288 325 26 129 122 35 52 70 41
197 200 199 195 187 183 195 225 287 265 177 214 185 195 203 210 217 43 342 17 324 107 98 105 145 169 177 177 111 33 56 83 116 130 146 199 237 156 33 70 59 47 70 50
194 186 185 185 184 175 183 230 223 301 279 218 217 193 202 201 117 115 80 87 319 32 114 104 125 224 167 155 156 164 43 11 142 132 184 286 231 145 198 95 219 81 78 76
177 173 177 172 170 177 178 222 233 208 277 292 262 199 196 160 149 142 149 47 279 356 97 116 181 123 228 119 159 167 159 141 187 100 91 282 179 100 130 190 100 81 62 59
165 168 166 168 182 183 179 216 212 252 306 291 318 140 308 201 155 125 122 164 212 198 101 68 88 73 41 117 193 185 129 173 174 163 208 225 114 110 90 94 98 57 67 49
170 168 172 179 192 180 192 183 165 184 256 277 255 50 317 42 141 124 121 62 244 117 155 145 124 130 129 134 246 123 84 143 111 85 351 88 81 73 75 75 78 73 58 52
176 178 181 187 192 190 184 175 196 278 260 153 339 284 350 305 110 112 139 175 135 108 72 95 124 135 166 197 196 136 198 116 147 139 116 84 51 55 90 73 89 80 67 67
183 184 190 187 182 168 163 186 221 254 298 195 255 168 10 83 57 90 108 136 111 96 72 87 160 150 90 338 72 79 150 171 138 200 79 108 84 77 84 80 84 85 88 77
192 188 183 172 149 149 157 42 260 222 213 284 241 309 18 51 129 84 92 109 80 81 115 178 57 87 105 109 142 73 89 65 66 129 94 102 99 75 73 86 84 83 88 89
177 175 159 155 161 156 135 192 308 93 168 199 230 38 325 333 53 40 30 33 60 95 83 58 123 72 79 110 132 153 103 94 74 100 112 98 95 110 95 95 94 90 85 85
160 160 157 156 115 57 238 258 228 226 153 70 90 346 21 3 31 44 347 53 41 23 89 19 87 21 61 85 114 115 109 96 78 70 85 106 115 111 112 112 105 98 101 110
144 144 121 106 98 210 222 279 279 327 93 105 88 119 180 34 45 16 21 56 65 354 87 101 79 25 122 156 130 119 131 118 120 102 104 110 116 125 119 110 110 115 118 97
137 131 169 186 185 320 313 23 28 25 39 41 80 44 113 55 74 3 75 22 138 116 253 74 73 77 78 40 80 95 105 113 115 110 115 120 125 132 130 120 107 101 99 93
68 77 48 336 345 10 38 52 76 1 52 47 25 113 123 328 130 156 176 151 92 107 252 118 117 161 166 126 95 81 114 118 122 116 131 136 129 116 109 104 101 96 90 87
117 115 110 33 23 20 61 20 5 42 44 41 50 12 77 312 132 117 160 117 51 134 166 102 180 139 130 132 143 137 121 121 124 122 120 118 118 113 111 107 102 95 94 94
92 54 56 12 6 42 67 121 45 62 8 54 49 30 127 22 51 66 127 133 149 100 104 192 185 132 138 151 131 117 115 114 112 98 88 92 90 88 102 104 109 104 88 79
61 52 53 44 49 52 22 57 51 22 301 73 84 26 113 155 62 104 95 331 97 125 144 226 142 156 148 120 120 119 116 102 104 103 103 101 101 96 88 88 94 104 100 97
58 39 63 65 117 86 64 86 67 345 303 43 50 29 60 32 91 61 117 112 176 186 208 117 141 138 133 125 107 104 107 106 106 113 114 115 111 106 101 99 103 104 106 102
46 38 54 356 79 41 37 24 29 356 330 289 77 133 70 47 107 102 144 143 176 134 82 126 134 132 122 118 113 111 108 111 115 118 125 123 121 120 119 118 118 123 124 120
43 25 4 5 43 43 19 353 330 287 34 46 26 54 62 42 45 58 20 47 42 93 105 122 133 120 121 122 137 123 120 121 122 120 107 109 114 121 122 103 121 144 115 113